This is the latest recevied weather packets stored in our database for station/object KE8GJZ-1. If no packets are shown the sender has not sent any weather packets the latest 10 day(s).
| Time | Temp. | Humidity | Pressure | Rain* | Wind** | Luminosity | Snow |
|---|---|---|---|---|---|---|---|
| 1778086511 | 11.67° C | 49% | 1011.4 hPa | 0 mm | - | 134 W/m² | - |
| 1778086206 | 11.67° C | 47% | 1011.3 hPa | 0 mm | - | 567 W/m² | - |
| 1778085903 | 12.22° C | 48% | 1011.2 hPa | 0 mm | - | 257 W/m² | - |
| 1778085601 | 11.67° C | 49% | 1011.2 hPa | 0 mm | - | 268 W/m² | - |
| 1778085296 | 11.11° C | 50% | 1011.2 hPa | 0 mm | - | 300 W/m² | - |
| 1778084990 | 10.56° C | 52% | 1011.1 hPa | 0 mm | - | 310 W/m² | - |
| 1778084689 | 11.11° C | 52% | 1011.3 hPa | 0 mm | - | 197 W/m² | - |
| 1778084386 | 11.11° C | 53% | 1011.2 hPa | 0 mm | - | 165 W/m² | - |
| 1778084084 | 11.11° C | 51% | 1011.1 hPa | 0 mm | - | 239 W/m² | - |
| 1778083781 | 11.11° C | 52% | 1011.1 hPa | 0 mm | - | 221 W/m² | - |
| 1778083478 | 11.67° C | 48% | 1011.5 hPa | 0 mm | - | 301 W/m² | - |
| 1778083175 | 11.67° C | 53% | 1011.2 hPa | 0 mm | - | 252 W/m² | - |
| 1778082873 | 11.11° C | 50% | 1011.2 hPa | 0 mm | - | 368 W/m² | - |
| 1778081754 | 11.67° C | 49% | 1011.1 hPa | 0 mm | - | 252 W/m² | - |
| 1778081452 | 12.22° C | 50% | 1010.8 hPa | 0 mm | - | 279 W/m² | - |
| 1778081149 | 12.78° C | 48% | 1011 hPa | 0 mm | - | 379 W/m² | - |
| 1778080846 | 13.33° C | 48% | 1010.8 hPa | 0 mm | - | 552 W/m² | - |
| 1778080545 | 12.78° C | 49% | 1010.9 hPa | 0 mm | - | 539 W/m² | - |
| 1778080242 | 12.22° C | 51% | 1011 hPa | 0 mm | - | 534 W/m² | - |
| 1778079938 | 12.78° C | 50% | 1010.9 hPa | 0 mm | - | 584 W/m² | - |
| 1778079635 | 11.67° C | 51% | 1010.8 hPa | 0 mm | - | 537 W/m² | - |
| 1778079331 | 11.11° C | 49% | 1010.6 hPa | 0 mm | - | 512 W/m² | - |
| 1778079029 | 11.67° C | 51% | 1010.7 hPa | 0 mm | - | 418 W/m² | - |
| 1778078725 | 11.11° C | 51% | 1010.7 hPa | 0 mm | - | 505 W/m² | - |
| 1778078423 | 11.67° C | 53% | 1010.6 hPa | 0 mm | - | 513 W/m² | - |
* Rain latest hour (hover to see other rain measurements)
** Current wind speed in m/s (hover to see current wind gust speed)